< Cyclone 200104 2001 Season Cyclone 200106 >
Cyclone 200105 (WYLVA)
General InformationTrack Information on Google MapsDetailed Wind InformationList of All Images || ResourceGoogle EarthGE AnimationAtom FeedGeoJSON
Detalied Best Track (Time Zone = UTC)
Year Month Day Hour Lat. Long. Pressure (hPa) Wind (kt) Class Image Chart
2001 2 14 00 -13.4 141.5 1000 25 2 Image --
2001 2 14 12 -14.3 141.0 1000 25 2 Image --
2001 2 15 00 -14.6 140.6 998 25 2 Image --
2001 2 15 06 -14.5 140.1 996 30 2 Image --
2001 2 15 12 -15.0 139.4 996 30 2 Image --
2001 2 15 18 -15.2 138.7 994 40 3 Image --
2001 2 16 00 -15.4 138.4 990 40 3 Image --
2001 2 16 06 -15.9 138.0 990 40 3 Image --
2001 2 16 11 -16.3 137.0 995 35 3 Image --
2001 2 16 12 -16.4 136.9 995 35 3 Image --
2001 2 16 18 -17.1 136.2 995 30 2 Image --
2001 2 17 00 -17.9 136.0 995 30 2 Image --
2001 2 17 06 -18.5 135.6 994 25 2 Image --
2001 2 17 12 -18.9 135.0 993 25 2 Image --
2001 2 17 18 -18.9 134.0 993 25 2 Image --
2001 2 18 00 -18.8 132.7 993 25 2 Image --
2001 2 18 06 -18.7 131.6 990 25 2 Image --
2001 2 18 12 -18.6 130.5 988 25 2 Image --
2001 2 19 00 -18.9 128.0 992 25 2 Image --
2001 2 19 12 -19.4 125.0 994 25 2 Image --
2001 2 20 00 -20.4 123.5 998 25 2 Image --
2001 2 20 12 -21.4 122.5 995 25 2 Image --
2001 2 21 00 -22.1 120.5 994 25 2 Image --
2001 2 21 12 -22.9 118.0 993 25 2 Image --
2001 2 22 00 -23.4 116.0 998 25 2 Image --
< Cyclone 200104 2001 Season Cyclone 200106 >

Help